Algona, IA

7:35 PM CDT on March 30, 2017 (GMT -0500)
Algona Municipal

Weather History for KAXA - December, 2013

Change the Weather History Date:

Thursday, December 5, 2013

  Actual Average Record
Temperature  
Mean Temperature 8 °F -  
Max Temperature 14 °F 35 °F 62 °F (2001)
Min Temperature 1 °F 21 °F -9 °F (2005)
Degree Days  
Heating Degree Days 58    
Moisture  
Dew Point 0 °F    
Average Humidity 69    
Maximum Humidity 79    
Minimum Humidity 57    
Precipitation  
Precipitation 0.00 in - - ()
Sea Level Pressure  
Sea Level Pressure 30.14 in    
Wind  
Wind Speed 18 mph (WNW)    
Max Wind Speed 23 mph    
Max Gust Speed 30 mph    
Visibility 10 miles    
Events Snow    
Averages and records for this station are not official NWS values.
T = Trace of Precipitation, MM = Missing Value Source: NWS Daily Summary

Daily Weather History Graph

Daily Weather History Graph

Search for Another Location

Airport or City:

Trip Planner

Search our weather history database for the weather conditions in past years. The results will help you decide how hot, cold, wet, or windy it might be!

Date:

Astronomy

Dec. 05, 2013 Rise Set
Actual Time 7:33 AM CST 4:42 PM CST
Civil Twilight 7:01 AM CST 5:14 PM CST
Nautical Twilight 6:25 AM CST 5:49 PM CST
Astronomical Twilight 5:51 AM CST 6:24 PM CST
Moon 9:52 AM CST (12/5) 8:06 PM CST (12/5)
Length of Visible Light 10h 13m
Length of Day
9h 08m
Waxing Crescent, 11% of the Moon is Illuminated
Dec 5
Waxing Crescent
Dec 9
First Quarter
Dec 17
Full
Dec 25
Last Quarter
Jan 1
New

Hourly Weather History & Observations

Time (CST) Temp. Windchill Dew Point Humidity Pressure Visibility Wind Dir Wind Speed Gust Speed Precip Events Conditions
12:15 AM 12.2 °F -6.3 °F 5.0 °F 73% 29.88 in 10.0 mi WNW 20.7 mph 29.9 mph N/A   Overcast
12:35 AM 12.2 °F -6.3 °F 5.0 °F 73% 29.88 in 7.0 mi West 20.7 mph - N/A Snow Light Snow
12:55 AM 12.2 °F -6.3 °F 3.2 °F 67% 29.88 in 10.0 mi WNW 20.7 mph 29.9 mph N/A   Overcast
1:15 AM 12.2 °F -6.7 °F 3.2 °F 67% 29.91 in 10.0 mi WNW 21.9 mph 28.8 mph N/A   Overcast
1:35 AM 10.4 °F -8.2 °F 3.2 °F 73% 29.92 in 10.0 mi WNW 19.6 mph 29.9 mph N/A   Overcast
1:55 AM 10.4 °F -9.5 °F 3.2 °F 73% 29.92 in 10.0 mi WNW 23.0 mph - N/A   Overcast
2:15 AM 10.4 °F -8.2 °F 3.2 °F 73% 29.93 in 10.0 mi WNW 19.6 mph 25.3 mph N/A   Overcast
2:35 AM 10.4 °F -8.6 °F 3.2 °F 73% 29.94 in 10.0 mi WNW 20.7 mph 28.8 mph N/A   Overcast
2:55 AM 10.4 °F -7.2 °F 3.2 °F 73% 29.95 in 10.0 mi WNW 17.3 mph 26.5 mph N/A   Overcast
3:15 AM 10.4 °F -9.1 °F 3.2 °F 73% 29.96 in 10.0 mi WNW 21.9 mph 29.9 mph N/A   Overcast
3:35 AM 8.6 °F -11.0 °F 3.2 °F 79% 29.97 in 10.0 mi WNW 20.7 mph 27.6 mph N/A   Overcast
3:55 AM 8.6 °F -10.0 °F 3.2 °F 79% 29.99 in 10.0 mi WNW 18.4 mph 29.9 mph N/A   Overcast
4:15 AM 8.6 °F -10.0 °F 1.4 °F 73% 30.00 in 10.0 mi WNW 18.4 mph 26.5 mph N/A   Overcast
4:35 AM 8.6 °F -10.0 °F 1.4 °F 73% 30.00 in 10.0 mi WNW 18.4 mph 25.3 mph N/A   Overcast
4:55 AM 8.6 °F -8.9 °F 1.4 °F 73% 30.01 in 10.0 mi WNW 16.1 mph 28.8 mph N/A   Mostly Cloudy
5:15 AM 8.6 °F -10.5 °F 1.4 °F 73% 30.01 in 10.0 mi WNW 19.6 mph 29.9 mph N/A   Mostly Cloudy
5:35 AM 8.6 °F -8.9 °F 1.4 °F 73% 30.03 in 10.0 mi WNW 16.1 mph 28.8 mph N/A   Mostly Cloudy
5:55 AM 8.6 °F -11.0 °F 1.4 °F 73% 30.04 in 10.0 mi WNW 20.7 mph - N/A   Mostly Cloudy
6:15 AM 6.8 °F -12.9 °F 1.4 °F 79% 30.05 in 10.0 mi WNW 19.6 mph - N/A   Mostly Cloudy
6:35 AM 6.8 °F -12.4 °F -0.4 °F 72% 30.05 in 10.0 mi WNW 18.4 mph 25.3 mph N/A   Mostly Cloudy
6:55 AM 6.8 °F -10.7 °F -0.4 °F 72% 30.06 in 10.0 mi WNW 15.0 mph 21.9 mph N/A   Mostly Cloudy
7:15 AM 6.8 °F -11.8 °F -0.4 °F 72% 30.07 in 10.0 mi West 17.3 mph - N/A   Overcast
7:35 AM 6.8 °F -12.9 °F -0.4 °F 72% 30.08 in 10.0 mi WNW 19.6 mph - N/A   Mostly Cloudy
7:55 AM 6.8 °F -11.8 °F -0.4 °F 72% 30.08 in - WNW 17.3 mph 24.2 mph N/A   Overcast
8:15 AM 6.8 °F -12.9 °F -0.4 °F 72% 30.09 in 10.0 mi WNW 19.6 mph 27.6 mph N/A   Overcast
8:35 AM 6.8 °F -12.4 °F -0.4 °F 72% 30.09 in 10.0 mi WNW 18.4 mph 25.3 mph N/A   Mostly Cloudy
8:55 AM 6.8 °F -12.9 °F -0.4 °F 72% 30.10 in 10.0 mi WNW 19.6 mph 26.5 mph N/A   Scattered Clouds
9:15 AM 8.6 °F -10.0 °F -0.4 °F 67% 30.11 in 10.0 mi WNW 18.4 mph 28.8 mph N/A   Partly Cloudy
9:35 AM 8.6 °F -9.5 °F 1.4 °F 73% 30.12 in 10.0 mi NW 17.3 mph 25.3 mph N/A   Clear
9:55 AM 10.4 °F -7.7 °F -0.4 °F 62% 30.13 in 10.0 mi WNW 18.4 mph 28.8 mph N/A   Clear
10:15 AM 10.4 °F -6.6 °F 1.4 °F 67% 30.15 in 10.0 mi WNW 16.1 mph 23.0 mph N/A   Clear
10:35 AM 12.2 °F -4.3 °F 1.4 °F 62% 30.15 in 10.0 mi NW 16.1 mph 25.3 mph N/A   Scattered Clouds
10:55 AM 12.2 °F -4.8 °F 1.4 °F 62% 30.16 in 10.0 mi NW 17.3 mph 25.3 mph N/A   Mostly Cloudy
11:15 AM 12.2 °F -5.8 °F 1.4 °F 62% 30.16 in 10.0 mi NW 19.6 mph 27.6 mph N/A   Mostly Cloudy
11:35 AM 12.2 °F -5.3 °F 1.4 °F 62% 30.15 in 10.0 mi NW 18.4 mph 27.6 mph N/A   Mostly Cloudy
11:55 AM 12.2 °F -5.8 °F 1.4 °F 62% 30.16 in 10.0 mi NW 19.6 mph 27.6 mph N/A   Partly Cloudy
12:15 PM 14.0 °F -2.0 °F 3.2 °F 62% 30.16 in 10.0 mi NW 16.1 mph 26.5 mph N/A   Scattered Clouds
12:35 PM 14.0 °F -1.4 °F 3.2 °F 62% 30.16 in 10.0 mi NW 15.0 mph 26.5 mph N/A   Scattered Clouds
12:55 PM 14.0 °F -4.3 °F 3.2 °F 62% 30.15 in 10.0 mi WNW 21.9 mph 28.8 mph N/A   Scattered Clouds
1:15 PM 14.0 °F -2.5 °F 3.2 °F 62% 30.15 in 10.0 mi WNW 17.3 mph 28.8 mph N/A   Mostly Cloudy
1:35 PM 14.0 °F -2.5 °F 3.2 °F 62% 30.15 in 10.0 mi WNW 17.3 mph - N/A   Overcast
1:55 PM 14.0 °F -3.0 °F 3.2 °F 62% 30.16 in 10.0 mi NW 18.4 mph 24.2 mph N/A   Mostly Cloudy
2:15 PM 14.0 °F -2.0 °F 3.2 °F 62% 30.16 in 10.0 mi WNW 16.1 mph 23.0 mph N/A   Mostly Cloudy
2:35 PM 12.2 °F -2.5 °F 1.4 °F 62% 30.16 in 10.0 mi WNW 12.7 mph 21.9 mph N/A   Overcast
2:55 PM 14.0 °F -2.5 °F 1.4 °F 57% 30.16 in 10.0 mi WNW 17.3 mph - N/A   Mostly Cloudy
3:15 PM 12.2 °F -5.8 °F 1.4 °F 62% 30.16 in 10.0 mi NW 19.6 mph - N/A   Mostly Cloudy
3:35 PM 12.2 °F -4.8 °F 1.4 °F 62% 30.18 in 10.0 mi WNW 17.3 mph - N/A   Mostly Cloudy
3:55 PM 10.4 °F -6.6 °F -0.4 °F 62% 30.19 in 10.0 mi WNW 16.1 mph - N/A   Scattered Clouds
4:15 PM 10.4 °F -5.4 °F -0.4 °F 62% 30.20 in 10.0 mi WNW 13.8 mph - N/A   Mostly Cloudy
4:35 PM 8.6 °F -6.3 °F -0.4 °F 67% 30.21 in - WNW 11.5 mph 20.7 mph N/A   Mostly Cloudy
4:55 PM 8.6 °F -6.3 °F -0.4 °F 67% 30.22 in 10.0 mi WNW 11.5 mph 18.4 mph N/A   Mostly Cloudy
5:15 PM 6.8 °F -10.0 °F -0.4 °F 72% 30.23 in 10.0 mi WNW 13.8 mph - N/A   Mostly Cloudy
5:35 PM 6.8 °F -10.7 °F -0.4 °F 72% 30.24 in 10.0 mi WNW 15.0 mph - N/A   Mostly Cloudy
5:55 PM 6.8 °F -9.3 °F -2.2 °F 67% 30.26 in 10.0 mi West 12.7 mph - N/A   Overcast
6:15 PM 6.8 °F -8.6 °F -2.2 °F 67% 30.28 in 10.0 mi West 11.5 mph - N/A   Overcast
6:35 PM 5.0 °F -11.6 °F -2.2 °F 72% 30.29 in 10.0 mi West 12.7 mph - N/A   Overcast
6:55 PM 5.0 °F -11.6 °F -2.2 °F 72% 30.30 in 10.0 mi West 12.7 mph - N/A   Mostly Cloudy
7:15 PM 5.0 °F -11.6 °F -2.2 °F 72% 30.30 in 10.0 mi West 12.7 mph - N/A   Partly Cloudy
7:35 PM 5.0 °F -11.6 °F -2.2 °F 72% 30.30 in 10.0 mi West 12.7 mph 18.4 mph N/A   Clear
7:55 PM 5.0 °F -13.0 °F -4.0 °F 66% 30.30 in 10.0 mi WNW 15.0 mph 20.7 mph N/A   Clear
8:15 PM 5.0 °F -13.0 °F -4.0 °F 66% 30.31 in 10.0 mi West 15.0 mph 21.9 mph N/A   Clear
8:35 PM 3.2 °F -17.1 °F -4.0 °F 72% 30.31 in 10.0 mi West 18.4 mph - N/A   Clear
8:55 PM 3.2 °F -14.6 °F -4.0 °F 72% 30.32 in 10.0 mi West 13.8 mph - N/A   Clear
9:15 PM 3.2 °F -15.9 °F -4.0 °F 72% 30.32 in 10.0 mi WNW 16.1 mph - N/A   Clear
9:35 PM 3.2 °F -15.3 °F -4.0 °F 72% 30.32 in 10.0 mi WNW 15.0 mph - N/A   Clear
9:55 PM 3.2 °F -14.6 °F -5.8 °F 66% 30.32 in 10.0 mi WNW 13.8 mph - N/A   Clear
10:15 PM 3.2 °F -13.9 °F -5.8 °F 66% 30.33 in 10.0 mi WNW 12.7 mph - N/A   Clear
10:35 PM 3.2 °F -11.3 °F -5.8 °F 66% 30.34 in 10.0 mi WNW 9.2 mph 17.3 mph N/A   Clear
10:55 PM 1.4 °F -15.3 °F -5.8 °F 72% 30.34 in 10.0 mi NW 11.5 mph - N/A   Clear
11:15 PM 1.4 °F -15.3 °F -5.8 °F 72% 30.34 in 10.0 mi NW 11.5 mph - N/A   Clear
11:35 PM 1.4 °F -15.3 °F -5.8 °F 72% 30.34 in 10.0 mi NW 11.5 mph - N/A   Clear
11:55 PM 1.4 °F -18.2 °F -7.6 °F 66% 30.34 in 10.0 mi NW 16.1 mph - N/A   Clear